Home   Weather   Meppen   Past weeks

Flag for Germany Past Weather in Meppen, Lower Saxony, Germany — Yesterday and Last 2 Weeks

Now
60 °F

Cool.


Feels Like: 60 °F
Forecast: 49 / 60 °F
Wind: 2 mph from South

Location: Meppen

Current Time: Oct 1, 2016 at 2:18:33 PM

Latest Report: Oct 1, 2016 at 1:00 PM


Visibility: 6 mi

Pressure: 29.80 "Hg

Humidity: 70%

Dew Point: 50 °F

Location of MeppenLocation

Past Weather in Meppen — Graph

°F

Meppen Temperature Yesterday

Maximum temperature yesterday: 62 °F (at 1:00 PM)
Minimum temperature yesterday: 48 °F (at 10:00 PM)
Average temperature yesterday: 57 °F

High & Low Weather Summary for the Past Weeks

 TemperatureHumidityPressure
High78 °F (Sep 25, 4:00 PM)97% (Sep 20, 4:00 AM)30.31 "Hg (Sep 20, 4:00 AM)
Low42 °F (Sep 24, 4:00 AM)37% (Sep 25, 4:00 PM)29.80 "Hg (Oct 1, 1:00 PM)
Average59 °F76%30.10 "Hg
* Reported Sep 16 1:00 PM — Oct 1 1:00 PM, Meppen, Weather by CustomWeather, © 2016

Note: Actual official high and low records may vary slightly from our data, if they occured in-between our weather recording intervals... More about our weather records

Advertising

Meppen Weather History for the Previous 24 Hours

Scroll right to see more
 ConditionsComfort  
Time TempWeatherWind HumidityBarometerVisibility
1:00 PM
Sat, Oct 1
60 °FCool.2 mph70%29.80 "Hg6 mi
12:00 PM60 °FCool.2 mph72%29.81 "Hg6 mi
10:00 AM53 °FCool.1 mph91%29.83 "Hg4 mi
9:00 AM51 °FCool.1 mph92%29.83 "Hg4 mi
7:00 AM49 °FCool.No wind95%29.83 "Hg3 mi
6:00 AM47 °FCool.No wind96%29.84 "Hg4 mi
4:00 AM44 °FQuite cool.No wind97%29.86 "Hg1 mi
3:00 AM45 °FQuite cool.No wind97%29.88 "Hg0 mi
1:00 AM47 °FCool.1 mph97%29.91 "Hg4 mi
12:00 AM47 °FCool.1 mph96%29.92 "Hg1 mi
10:00 PM
Fri, Sep 30
48 °FCool.1 mph95%29.94 "Hg1 mi
9:00 PM49 °FCool.No wind93%29.93 "Hg3 mi
7:00 PM60 °FCool.2 mph67%29.91 "Hg6 mi
6:00 PM60 °FCool.2 mph62%29.91 "Hg6 mi
4:00 PM61 °FCool.5 mph70%29.90 "Hg6 mi
3:00 PM59 °FCool.3 mph66%29.91 "Hg2 mi
Weather by CustomWeather, © 2016

See weather overviewHow to use our weather pages